Location: Eltisley
(52.2167°N, 0.1333°W)
Time: 03:56:39
(UTC+00:00)

Daily predictions for brighter satellites

Satellite Brightness Start Highest point End
(mag) Time Altitude Azimuth Time Altitude Azimuth Time Altitude Azimuth
Cosmos 2360 Rocket 4.3 03:23:47 22° ENE 03:23:47 22° ENE 03:26:28 10° E
ACS3 Solar Sail 4.3 03:16:09 10° NNE 03:16:26 12° NNE 03:16:26 12° NNE
Cosmos 2333 Rocket 4.0 03:37:09 27° E 03:37:09 27° E 03:40:08 10° ESE
Cosmos 2219 Rocket 4.2 03:37:43 23° NE 03:37:43 23° NE 03:41:32 10° E
ATLAS 3B R/B 3.9 03:43:53 37° N 03:43:53 37° N 03:51:01 10° ENE
ADEOS Rocket 4.5 03:39:50 10° NNE 03:44:12 38° N 03:44:12 38° N
Cosmos 2322 Rocket 3.7 03:48:59 33° ENE 03:48:59 33° ENE 03:52:54 10° ESE
SL-16 R/B 3.2 04:20:13 38° SE 04:20:13 38° SE 04:23:37 10° SSE
Cosmos 2082 Rocket 3.3 04:23:18 37° NNE 04:23:18 37° NNE 04:26:37 10° NNE
COSMOS 2406 3.6 04:24:42 60° E 04:24:42 60° E 04:29:50 10° NE
Meteor 2-3 Rocket 4.4 04:23:51 10° S 04:29:22 53° E 04:34:52 10° NNE
NOSS 3-1 (A) 3.7 04:33:08 75° WNW 04:33:49 84° SW 04:42:30 10° SE
SeaSat 1 3.8 04:28:58 10° NNE 04:31:30 31° NNE 04:31:30 31° NNE
Cosmos-2242 4.4 04:41:00 35° ESE 04:41:00 35° ESE 04:43:48 10° SSE
Cosmos 2278 4.0 04:44:42 55° S 04:44:42 55° S 04:49:04 10° SSE
COSMO-SKYMED 1 3.5 04:43:37 10° SE 04:47:21 43° ENE 04:47:21 43° ENE
USA 234 3.2 04:42:18 10° ENE 04:48:48 65° NNW 04:49:34 60° NW
SL-16 R/B 4.4 04:55:48 11° N 04:57:20 13° NNE 04:59:43 10° NE
Cosmos 2285 Rocket 4.2 04:56:29 32° NNW 04:59:35 72° ENE 05:06:00 10° SSE
Cosmos 2026 Rocket 4.1 04:53:41 10° S 04:59:42 74° E 05:05:51 10° NNE
USA 229 4.4 04:57:03 34° NNW 05:00:00 51° NNE 05:07:40 10° ESE
USA 229 DEB 4.4 04:57:09 34° NNW 05:00:05 51° NNE 05:07:45 10° ESE
Helios 1A Rocket 4.4 04:56:58 10° SE 04:58:46 27° ESE 04:58:46 27° ESE
FengYun 1-2 T 4.2 04:58:31 10° NNE 05:04:14 86° ESE 05:09:54 10° SSW
ACS3 Solar Sail 3.9 04:59:53 10° N 05:00:25 12° N 05:00:25 12° N
Cosmos 2360 Rocket 2.0 05:05:34 65° NW 05:06:25 84° WSW 05:12:02 10° SSE
BREEZE-M DEB (TANK) 3.7 05:12:03 28° S 05:12:03 28° S 05:15:54 10° ESE
SL-4 R/B 3.5 05:19:35 22° SSE 05:19:35 22° SSE 05:21:02 10° SE
Cosmos 2333 Rocket 2.4 05:19:13 50° WSW 05:19:13 50° WSW 05:24:44 10° S
Cosmos 2237 Rocket 4.0 05:15:51 14° N 05:19:19 23° NE 05:23:44 10° E
Cosmos 2219 Rocket 2.2 05:19:27 36° NNW 05:21:52 82° ENE 05:27:30 10° SSE
Cosmos 841 Rocket 4.0 05:22:59 41° NNW 05:22:59 41° NNW 05:27:09 10° NNE
Meteor 2-20 4.4 05:22:14 28° NNW 05:25:25 59° W 05:31:21 10° S
Cosmos 1553 Rocket 4.1 05:19:45 10° N 05:26:12 80° E 05:32:36 10° SSE
Nadezhda 4 Rocket 4.2 05:28:56 38° WSW 05:30:28 45° WNW 05:36:27 10° N
Cosmos 1092 Rocket 3.9 05:24:46 10° SSW 05:31:03 79° WNW 05:37:17 10° N
Cosmos 2322 Rocket 2.3 05:30:49 46° WNW 05:31:53 52° WSW 05:37:21 10° S
Cosmos 1812 Rocket 4.4 05:30:03 11° N 05:34:02 50° ENE 05:38:15 10° SSE
ATLAS 3B R/B 3.3 05:31:08 25° NW 05:36:06 64° NE 05:43:39 10° ESE
NOAA 12 4.0 05:34:02 10° NNE 05:39:21 79° WNW 05:44:36 10° SSW
SL-24 R/B 4.3 05:36:31 10° N 05:41:49 73° WNW 05:46:23 10° SSW
CZ-4 R/B 3.6 05:39:02 10° NNE 05:43:40 73° WNW 05:48:16 10° SSW
Cosmos 2322 4.2 05:42:09 18° NNW 05:46:20 59° NE 05:51:56 10° SE
Meteor 2-20 Rocket 4.3 05:41:51 15° NNW 05:46:33 55° W 05:52:04 10° S
Cosmos 2058 Rocket 3.7 05:48:36 35° WSW 05:48:36 35° WSW 05:51:57 10° SSW
IRIDIUM 106 4.4 05:43:37 10° S 05:48:50 81° E 05:54:05 10° N
Cosmos 2221 2.6 05:46:00 14° N 05:49:35 71° ENE 05:53:42 10° SSE
Cosmos 1743 2.9 05:48:12 10° S 05:51:23 56° E 05:54:35 10° NNE
Cosmos 1125 Rocket 3.4 05:50:26 20° NNW 05:54:10 89° WSW 05:59:24 10° SSE
Cosmos 2333 4.4 05:52:32 30° NW 05:54:58 48° WSW 06:00:24 10° S
SKYMED 2 4.5 05:51:24 10° SSW 05:54:35 30° WSW 05:54:35 30° WSW
Orbus 7S? 3.3 05:56:02 36° SSW 05:56:02 36° SSW 05:58:23 10° SSE
Meteor 2-6 Rocket 4.3 05:49:57 10° NNW 05:55:54 70° W 06:01:47 10° S
CZ-2C R/B 4.2 05:56:52 10° N 05:58:30 16° NNW 05:58:30 16° NNW
SL-16 R/B 3.6 06:02:07 20° WSW 06:02:07 20° WSW 06:05:21 10° SW
Cosmos 1417 Rocket 4.5 05:58:15 10° N 06:04:26 85° E 06:10:37 10° S
Cosmos 2082 Rocket 3.3 06:05:09 23° NW 06:05:52 24° NW 06:10:21 10° NNE
ATLAS 5 CENTAUR R/B 3.1 06:06:58 14° N 06:07:42 15° N 06:10:06 10° NE
IRS-1D 3.7 06:03:44 10° N 06:08:29 44° WNW 06:13:18 10° SW
COSMOS 2406 3.9 06:06:48 26° W 06:08:53 33° NW 06:14:00 10° NNE
SeaSat 1 3.7 06:06:59 10° NNE 06:10:42 22° NW 06:11:08 22° NW
COSMOS 2428 2.9 06:06:30 14° NNW 06:11:27 75° ENE 06:17:10 10° SE
ATLAS 2AS CENTAUR R/B 3.2 06:04:46 10° SSW 06:11:41 64° SE 06:18:28 10° NE
SMAP 4.0 06:07:09 10° NNE 06:11:43 50° E 06:16:14 10° S
Meteor 2-3 Rocket 4.4 06:07:51 10° SW 06:12:51 31° WNW 06:17:50 10° N
Cosmos 1707 2.1 06:10:37 18° N 06:12:53 86° E 06:16:00 10° S
ISS -0.4 06:15:01 10° SSE 06:16:09 11° SE 06:17:19 10° ESE
Cosmos-2242 4.3 06:17:23 20° WSW 06:17:23 20° WSW 06:19:43 10° SW
IGS 5A 3.2 06:13:24 10° NNE 06:17:25 82° WNW 06:21:26 10° SSW
Cosmos 1758 Rocket 3.5 06:14:59 10° SSW 06:19:20 58° WNW 06:23:39 10° N
Cosmos 405 Rocket 2.7 06:18:03 10° SW 06:21:07 37° WNW 06:24:12 10° N
COSMO-SKYMED 1 3.5 06:19:39 10° SSW 06:23:00 24° W 06:23:41 23° WNW
Cosmos 1484 Rocket 2.4 06:19:55 10° N 06:23:16 56° WNW 06:26:35 10° SSW
Cosmos 1174 4.5 06:19:51 18° NW 06:24:12 71° SW 06:28:54 10° SSE
BREEZE-M DEB (TANK) 3.4 06:25:17 17° WSW 06:27:24 61° S 06:34:36 10° E
SL-08 R/B 4.2 06:26:47 10° SE 06:31:13 47° ENE 06:35:46 10° N
USA 234 3.5 06:25:01 10° E 06:31:29 62° N 06:36:54 15° WNW
BREEZE-M DEB (TANK) 4.2 06:14:32 10° W 06:32:39 74° S 06:37:03 10° E
ARIANE 5 R/B 3.4 06:27:36 10° NNE 06:32:45 55° E 06:37:52 10° S
Helios 1A Rocket 4.2 06:30:45 10° SW 06:32:18 15° WSW 06:32:18 15° WSW
Cosmos 1437 Rocket 2.9 06:34:55 15° NNW 06:37:27 39° W 06:40:43 10° SSW
Cosmos 1626 Rocket 4.2 06:36:56 10° SW 06:40:54 32° WNW 06:44:53 10° N
SL-16 R/B 3.8 06:38:43 10° NNW 06:43:32 27° NE 06:48:19 10° E
Cosmos 1814 Rocket 4.5 06:38:51 10° WSW 06:43:45 38° NW 06:48:44 10° NNE
Meteor 1-27 Rocket 3.8 06:37:56 10° NNW 06:43:48 82° W 06:49:31 10° S
Cosmos 1818 4.0 06:38:48 12° NW 06:43:52 60° NE 06:49:15 10° ESE
Meteor 1-20 Rocket 4.1 06:39:29 10° SSW 06:45:07 80° WNW 06:50:41 10° NNE
Cosmos 2297 Rocket 4.1 06:43:56 10° S 06:48:57 34° ESE 06:54:00 10° NE
BREEZE M DEB (TANK) 3.5 06:46:23 10° SW 06:48:57 43° SSE 06:54:38 10° E
Cosmos 2360 Rocket 3.7 06:47:21 13° WNW 06:49:33 17° W 06:52:57 10° SW
USA 290 4.1 06:47:12 10° S 06:50:11 35° ESE 06:53:11 10° NE
USA 229 4.1 06:44:29 12° NW 06:51:22 67° SW 06:59:23 10° SSE
USA 229 DEB 4.1 06:44:35 12° NW 06:51:27 67° SW 06:59:28 10° SSE
CBERS-1 4.1 06:46:50 10° N 06:51:50 56° WNW 06:56:48 10° SW
Cosmos 1980 4.0 06:46:18 10° NNW 06:52:01 72° ENE 06:57:41 10° SE
Cosmos 2150 Rocket 4.1 06:47:08 10° NNW 06:52:36 78° WSW 06:57:59 10° SSE
Meteor 2-4 Rocket 3.7 06:48:25 10° NNW 06:53:52 84° ENE 06:59:25 10° SSE
Cosmos 1238 Rocket 2.5 06:57:31 10° NNW 07:00:10 36° W 07:02:52 10° SSW
Cosmos 1842 3.5 06:57:50 10° NNW 07:00:54 35° W 07:03:56 10° SSW
Cosmos 1842 Rocket 3.6 06:56:47 10° N 07:01:07 83° E 07:05:27 10° SSE
Cosmos 2315 Rocket 4.1 06:55:03 10° NNW 07:01:18 60° W 07:07:28 10° S
Cosmos 1570 Rocket 4.0 06:57:21 10° SSW 07:02:41 78° WNW 07:08:04 10° NNE
Cosmos 773 Rocket 4.1 06:58:00 10° SSW 07:03:07 81° ESE 07:08:18 10° NNE
NOSS 0 Rocket 4.0 06:57:39 10° NW 07:03:51 67° WSW 07:10:01 10° SSE
Cosmos 2237 Rocket 2.3 06:58:35 10° NNW 07:04:15 80° ENE 07:09:53 10° SE
Cosmos 2219 Rocket 3.5 07:01:10 10° NW 07:05:08 21° W 07:09:09 10° SSW
Resurs 01 Rocket 4.4 07:03:21 10° NE 07:06:42 21° E 07:10:01 10° SE
S3M 4.4 07:05:43 10° NNW 07:11:25 40° W 07:17:02 10° SSW
Cosmos 2151 3.8 07:09:18 10° SW 07:12:51 28° WNW 07:16:26 10° N
Cosmos 1271 Rocket 4.3 07:11:35 10° N 07:14:43 29° ENE 07:17:50 10° SE
IRS-P3 4.3 07:12:08 10° NNE 07:17:29 84° ESE 07:22:48 10° SSW
Cosmos 1151 Rocket 4.0 07:14:19 10° N 07:18:25 46° ENE 07:22:29 10° SSE
Thor Agena Rocket 3.7 07:14:01 10° N 07:18:53 49° WNW 07:23:42 10° SW
Cosmos 1655 Rocket 4.0 07:12:34 10° SSW 07:18:54 73° WNW 07:25:14 10° N
SAR-Lupe-4 3.8 07:16:26 10° N 07:19:53 47° WNW 07:23:19 10° SW
YAOGAN 11 4.2 07:19:21 10° S 07:23:37 61° WSW 07:27:53 10° NNW
Meteor 1-5 Rocket 4.1 07:18:53 10° SSW 07:24:15 75° WNW 07:29:34 10° N
Cosmos 2344 3.7 07:18:07 10° SW 07:25:44 78° SE 07:33:03 10° NE
Okean 1-7 Rocket 4.4 07:22:10 10° SW 07:26:10 31° WNW 07:30:10 10° N
ATLAS 3B R/B 3.4 07:19:21 10° NW 07:26:49 49° WSW 07:33:54 10° SSE
